Retour au catalogue

STARLINK-36465

ActifCommunicationsVLEO
NORAD 67423·PAYLOAD·🇺🇸 United States

Lancé Jan 12, 2026 depuis Cape Canaveral Space Force Station

Loading…

Prochains Passages (prochaines 24 heures)

TLE

FraisSource: CelesTrak SupGP

Époque: Sep 14, 2026, 22:36 UTC

1 67423C 26005V   26257.94215278  .00029811  00000+0  10788-2 0  2578
2 67423  43.0009 249.4085 0001553 258.4223 245.5886 15.27592833    16

Suivez STARLINK-36465 en temps réel avec AllMySat

Download on the App Store